BSAT-4A (42951 NORAD) Tracking and Keplerian Element Data

This shows tracking and keplerian element data for the satellite.

Feedback or suggestion? Click here.




ElementValue
Catalog42951
NameBSAT-4A
Epoch Orbit555
Epoch Day106.95270552
Epoch Year2019
RAAN70.2282
Inclination0.0946
Eccentricity0.0005036
Argument of Perigee332.3967
Mean Anonmoly254.9841
Mean Motion1.00270911
Decay Rate-3.72E-06
L11 42951U 17059B 19106.95270552 -.00000372 00000-0 00000-0 0 9998
L22 42951 0.0946 70.2282 0005036 332.3967 254.9841 1.00270911 5559

Live tracking and technical data element details for BSAT-4A (NORAD 42951). BSAT-4A can be tracked NOW for your location showing map with azimuth and elevation plus other details from your city location.

Track the satellite on the map from your city or location and see movement details for azimuth, elevation, latitude, longitude, range, height, and movement on the map or in text.







IsCatalogInMostPopularTable: catalog: 42951, numindb: 207
Update: records affected: 1



GetName: 42951 BSAT-4A

Hit Count: updated at: Sat, 20 Apr 2019 01:10:20 GMT